Pearl River, LA

6:53 AM CST on February 24, 2017 (GMT -0600)
Slidell

Weather History for KASD - March, 2013

Change the Weather History Date:

Saturday, March 30, 2013

  Actual Average (KNEW) Record (KNEW)
Temperature  
Mean Temperature 60 °F -  
Max Temperature 75 °F 73 °F 86 °F (2002)
Min Temperature 46 °F 59 °F 36 °F (1964)
Degree Days  
Heating Degree Days 4    
Growing Degree Days 10 (Base 50)    
Moisture  
Dew Point 53 °F    
Average Humidity 79    
Maximum Humidity 100    
Minimum Humidity 49    
Precipitation  
Precipitation 0.01 in - - ()
Sea Level Pressure  
Sea Level Pressure 30.13 in    
Wind  
Wind Speed 3 mph (South)    
Max Wind Speed 13 mph    
Max Gust Speed 20 mph    
Visibility 9 miles    
Events      
Averages and records for this station are not official NWS values.
T = Trace of Precipitation, MM = Missing Value Source: NWS Daily Summary

Daily Weather History Graph

Daily Weather History Graph

Search for Another Location

Airport or City:

Trip Planner

Search our weather history database for the weather conditions in past years. The results will help you decide how hot, cold, wet, or windy it might be!

Date:

Astronomy

Mar. 30, 2013 Rise Set
Actual Time 6:50 AM CDT 7:17 PM CDT
Civil Twilight 6:26 AM CDT 7:41 PM CDT
Nautical Twilight 5:58 AM CDT 8:09 PM CDT
Astronomical Twilight 5:29 AM CDT 8:38 PM CDT
Moon 11:06 PM CDT (3/30) 9:01 AM CDT (3/30)
Length of Visible Light 13h 14m
Length of Day
12h 26m
Waning Gibbous, 86% of the Moon is Illuminated
Mar 30
Waning Gibbous
Apr 2
Last Quarter
Apr 10
New
Apr 18
First Quarter
Apr 25
Full

Hourly Weather History & Observations

Time (CDT) Temp. Dew Point Humidity Pressure Visibility Wind Dir Wind Speed Gust Speed Precip Events Conditions
12:53 AM 52.0 °F 50.0 °F 93% 30.20 in 10.0 mi Calm Calm - N/A   Clear
1:53 AM 51.1 °F 48.9 °F 92% 30.19 in 10.0 mi Calm Calm - N/A   Clear
2:53 AM 51.1 °F 48.9 °F 92% 30.18 in 10.0 mi Calm Calm - N/A   Clear
3:53 AM 50.0 °F 48.0 °F 93% 30.17 in 10.0 mi Calm Calm - N/A   Clear
4:10 AM 48.2 °F 46.4 °F 93% 30.17 in 6.0 mi North 3.5 mph - N/A   Scattered Clouds
4:17 AM 48.2 °F 48.2 °F 100% 30.16 in 1.2 mi Calm Calm - N/A   Mostly Cloudy
4:24 AM 48.2 °F 48.2 °F 100% 30.16 in 4.0 mi Calm Calm - N/A   Mostly Cloudy
4:53 AM 48.0 °F 46.9 °F 96% 30.16 in 10.0 mi Calm Calm - N/A   Overcast
5:50 AM 48.2 °F 46.4 °F 93% 30.16 in 10.0 mi Calm Calm - N/A   Scattered Clouds
5:53 AM 48.0 °F 46.9 °F 96% 30.16 in 10.0 mi Calm Calm - N/A   Partly Cloudy
6:53 AM 46.9 °F 46.0 °F 97% 30.17 in 10.0 mi Calm Calm - N/A   Clear
7:53 AM 51.1 °F 50.0 °F 96% 30.17 in 10.0 mi Calm Calm - 0.01 in   Clear
8:53 AM 63.0 °F 57.9 °F 84% 30.18 in 10.0 mi SSE 6.9 mph - N/A   Clear
9:53 AM 69.1 °F 55.9 °F 63% 30.18 in 10.0 mi South 12.7 mph - N/A   Clear
10:53 AM 72.0 °F 57.9 °F 61% 30.20 in 10.0 mi South 11.5 mph 19.6 mph N/A   Partly Cloudy
11:53 AM 71.1 °F 55.9 °F 59% 30.18 in 10.0 mi SSW 9.2 mph - N/A   Mostly Cloudy
12:53 PM 73.0 °F 55.0 °F 53% 30.16 in 10.0 mi SSW 10.4 mph 18.4 mph N/A   Partly Cloudy
1:53 PM 73.0 °F 55.0 °F 53% 30.13 in 10.0 mi South 11.5 mph 16.1 mph N/A   Scattered Clouds
2:53 PM 73.0 °F 53.1 °F 49% 30.11 in 10.0 mi SSW 8.1 mph - 0.00 in   Partly Cloudy
3:53 PM 75.0 °F 55.0 °F 50% 30.06 in 10.0 mi SSE 11.5 mph 16.1 mph N/A   Mostly Cloudy
4:53 PM 75.0 °F 55.9 °F 51% 30.04 in 10.0 mi South 12.7 mph - N/A   Partly Cloudy
5:53 PM 73.0 °F 57.9 °F 59% 30.06 in 10.0 mi South 9.2 mph - N/A   Partly Cloudy
6:53 PM 70.0 °F 59.0 °F 68% 30.06 in 10.0 mi SSW 5.8 mph - N/A   Clear
7:53 PM 64.0 °F 59.0 °F 84% 30.04 in 10.0 mi South 6.9 mph - N/A   Clear
8:53 PM 66.9 °F 60.1 °F 79% 30.04 in 10.0 mi SSW 5.8 mph - N/A   Clear
9:53 PM 66.0 °F 60.1 °F 81% 30.06 in 10.0 mi South 4.6 mph - N/A   Clear
10:53 PM 60.1 °F 59.0 °F 96% 30.08 in 10.0 mi Calm Calm - N/A   Clear
11:53 PM 57.9 °F 55.9 °F 93% 30.07 in 10.0 mi Calm Calm - N/A   Clear